Regional Weather Roundup
Issued by NWS

Home | Current Version | Previous Version | Graphics & Text | Print | Product List | Glossary Off
Versions: 1 2 3 4 5 6 7 8 9 10 11 12 13 14 15 16 17 18 19 20 21 22 23 24 25 26 27 28 29 30 31 32 33 34 35 36 37 38 39 40 41 42 43 44 45 46 47 48 49 50

000
ASUS43 KDTX 231801
RWRMI
MICHIGAN HOURLY REGIONAL WEATHER ROUNDUP
NATIONAL WEATHER SERVICE DETROIT/PONTIAC MI
200 PM EDT SAT SEP 23 2017

NOTE: "FAIR" INDICATES FEW OR NO CLOUDS BELOW 12,000 FEET WITH NO
SIGNIFICANT WEATHER AND/OR OBSTRUCTION TO VISIBILITY.

MIZ047>049-052>055-059>063-066>070-074>076-081>083-231900-
SOUTHEAST LOWER MICHIGAN

CITY           SKY/WX    TMP DP  RH WIND       PRES   REMARKS
ADRIAN         SUNNY     89  60  37 CALM      30.15F
6HR MIN TEMP:  60; 6HR MAX TEMP:  90;

ALMA           SUNNY     91  58  32 S6        30.13F HX  90
ANN ARBOR      SUNNY     91  60  35 NE6       30.15S HX  90
BAD AXE        SUNNY     90  64  42 W3        30.15F HX  91
CARO           SUNNY     91  65  42 SW6       30.13F HX  92
DETROIT CITY   SUNNY     87  68  52 SE8       30.15S HX  90
6HR MIN TEMP:  66; 6HR MAX TEMP:  90;

DETROIT        MOSUNNY   88  63  43 CALM      30.15F
6HR MIN TEMP:  67; 6HR MAX TEMP:  90;

FLINT          SUNNY     91  64  40 CALM      30.14F HX  92
6HR MIN TEMP:  64; 6HR MAX TEMP:  91;

GROSSE ILE     SUNNY     80  68  66 S6        30.15F
6HR MIN TEMP:  65; 6HR MAX TEMP:  81;

HILLSDALE      SUNNY     88  59  37 SW5       30.16S
HOWELL         SUNNY     90  56  31 S5        30.15F
6HR MIN TEMP:  64; 6HR MAX TEMP:  90;


CITY           SKY/WX    TMP DP  RH WIND       PRES   REMARKS
JACKSON        SUNNY     91  56  30 SE3       30.15F
6HR MIN TEMP:  63; 6HR MAX TEMP:  91;

LAMBERTVILLE   SUNNY     88  65  45 CALM      30.14F
6HR MIN TEMP:  62; 6HR MAX TEMP:  89;

LANSING        SUNNY     90  61  37 W3        30.14F HX  90
6HR MIN TEMP:  66; 6HR MAX TEMP:  92;

LAPEER         FAIR      90  61  37 CALM      30.15F HX  90
6HR MIN TEMP:  62; 6HR MAX TEMP:  91;

MASON          SUNNY     91  61  36 NE3       30.15S HX  91
MONROE         MOSUNNY   87  66  49 CALM      30.14F
6HR MIN TEMP:  64; 6HR MAX TEMP:  87;

PONTIAC        MOSUNNY   89  60  37 CALM      30.15F
6HR MIN TEMP:  66; 6HR MAX TEMP:  91;

PORT HOPE        N/A     77  71  82 SE6       30.12F
6HR MIN TEMP:  72; 6HR MAX TEMP:  87;

PORT HURON     SUNNY     91  61  35 SE3       30.14F HX  91
TRI CITIES     SUNNY     92  67  43 W5        30.13F HX  95
6HR MIN TEMP:  69; 6HR MAX TEMP:  92;

MIDLAND        FAIR      91  67  44 NW5       30.11F HX  94
6HR MIN TEMP:  61; 6HR MAX TEMP:  92;

TROY           SUNNY     90  60  36 NE6       30.16F HX  90
SAGINAW HB     SUNNY     90  64  43 S5        30.12F HX  91
$$
MIZ043>046-050>051-056>058-064>065-071>073-077>080-231900-
SOUTHWEST LOWER MICHIGAN

CITY           SKY/WX    TMP DP  RH WIND       PRES   REMARKS
BATTLE CREEK   SUNNY     91  58  32 S5        30.14F HX  90
6HR MIN TEMP:  66; 6HR MAX TEMP:  92;

BENTON HARBOR  SUNNY     92  63  38 E5        30.10F HX  93
6HR MIN TEMP:  67; 6HR MAX TEMP:  92;

BIG RAPIDS     SUNNY     89  63  41 SW7G16    30.12F HX  90
6HR MIN TEMP:  60; 6HR MAX TEMP:  90;

COLDWATER      SUNNY     89  59  35 E5        30.14F
6HR MIN TEMP:  63; 6HR MAX TEMP:  89;

FREMONT        FAIR      89  65  45 W3        30.11F HX  91
HOLLAND        SUNNY     91  65  41 NW8       30.12F HX  93
6HR MIN TEMP:  68; 6HR MAX TEMP:  93;

GRAND RAPIDS   MOSUNNY   93  63  36 CALM      30.12F HX  94
6HR MIN TEMP:  68; 6HR MAX TEMP:  94;

IONIA          FAIR      92  61  35 CALM      30.12F HX  92
6HR MIN TEMP:  64; 6HR MAX TEMP:  92;

KALAMAZOO      SUNNY     93  57  29 VRB5      30.13F HX  91
6HR MIN TEMP:  67; 6HR MAX TEMP:  93;

LUDINGTON      SUNNY     86  66  51 SW8       30.10F
6HR MIN TEMP:  66; 6HR MAX TEMP:  86;

MARSHALL       SUNNY     90  57  32 SE6       30.14S
6HR MIN TEMP:  61; 6HR MAX TEMP:  92;

MUSKEGON       MOSUNNY   90  66  45 SW8       30.12F HX  92
6HR MIN TEMP:  68; 6HR MAX TEMP:  91;

SOUTH HAVEN    SUNNY     92  61  35 NW6       30.11S HX  91
$$
MIZ016>042-231900-
NORTHERN LOWER MICHIGAN

CITY           SKY/WX    TMP DP  RH WIND       PRES   REMARKS
ALPENA         SUNNY     90  69  50 SW7       30.10F HX  94
6HR MIN TEMP:  65; 6HR MAX TEMP:  90;

BEAVER ISLAND  SUNNY     81  65  58 SW13      30.08S
6HR MIN TEMP:  73; 6HR MAX TEMP:  82;

BELLAIRE       SUNNY     89  64  44 S6        30.09F HX  90
6HR MIN TEMP:  61; 6HR MAX TEMP:  89;

CADILLAC       SUNNY     92  62  36 SW10      30.13F HX  92
CHARLEVOIX     SUNNY     89  63  42 SW10      30.12S
FRANKFORT      MOSUNNY   84  67  55 S10G17    30.10S
GAYLORD        SUNNY     86  62  44 W17       30.13F
6HR MIN TEMP:  66; 6HR MAX TEMP:  87;

GRAYLING       SUNNY     90  63  40 W9        30.13F HX  90
6HR MIN TEMP:  58; 6HR MAX TEMP:  90;

HARBOR SPRINGS SUNNY     89  62  41 W7        30.08F
HOUGHTON LAKE  SUNNY     89  66  46 SW7       30.14F HX  91
6HR MIN TEMP:  58; 6HR MAX TEMP:  89;

MANISTEE       SUNNY     90  68  48 SW10      30.09F HX  94
OSCODA         SUNNY     92  66  42 SW7       30.10F HX  94
6HR MIN TEMP:  68; 6HR MAX TEMP:  92;

PELLSTON       SUNNY     89  65  44 W9        30.08F HX  91
6HR MIN TEMP:  63; 6HR MAX TEMP:  90;

ROGERS CITY    MOSUNNY   83  68  59 CALM      30.10S
TRAVERSE CITY  MOSUNNY   92  65  40 SW8       30.07F HX  94
6HR MIN TEMP:  71; 6HR MAX TEMP:  92;

$$
MIZ007>008-015-231900-
EASTERN UPPER MICHIGAN

CITY           SKY/WX    TMP DP  RH WIND       PRES   REMARKS
KINROSS        SUNNY     85  70  60 SW6       30.06F
6HR MIN TEMP:  65; 6HR MAX TEMP:  86;

MACKINAC ISLAN SUNNY     78  65  63 SW9G17    30.08F
6HR MIN TEMP:  71; 6HR MAX TEMP:  81;

NEWBERRY       SUNNY     84  72  66 S12       30.04S HX  90
6HR MIN TEMP:  66; 6HR MAX TEMP:  85;

S. S. MARIE    SUNNY     87  70  56 SW8       30.03F HX  92
6HR MIN TEMP:  66; 6HR MAX TEMP:  87;

MUNISING         N/A     88  71  57 S15G22    29.97F HX  94
6HR MIN TEMP:  68; 6HR MAX TEMP:  88;

$$
MIZ004>006-011>014-085-231900-
CENTRAL UPPER MICHIGAN

CITY           SKY/WX    TMP DP  RH WIND       PRES   REMARKS
MANISTIQUE     SUNNY     72  66  81 S10       30.05F
6HR MIN TEMP:  65; 6HR MAX TEMP:  74; 6HR PCP:  0.01;

ESCANABA       SUNNY     77  68  73 S14       30.03F
6HR MIN TEMP:  58; 6HR MAX TEMP:  78;

MENOMINEE      SUNNY     86  70  58 S7        30.05F HX  90
6HR MIN TEMP:  69; 6HR MAX TEMP:  86;

SAWYER-GWINN   SUNNY     84  68  58 SW16      30.01F
$$
MIZ001>003-009>011-084-231900-
WESTERN UPPER MICHIGAN

CITY           SKY/WX    TMP DP  RH WIND       PRES   REMARKS
IRON MOUNTAIN  SUNNY     88  64  44 SW15G23   30.02F
6HR MIN TEMP:  69; 6HR MAX TEMP:  88;

HOUGHTON       MOSUNNY   85  69  58 W13       29.97S
6HR MIN TEMP:  70; 6HR MAX TEMP:  85;

COPPER HARBOR    N/A     85  69  58 N9        29.94S
6HR MIN TEMP:  72; 6HR MAX TEMP:  86;

IRONWOOD       MOSUNNY   83  70  64 S9        29.98F
6HR MIN TEMP:  74; 6HR MAX TEMP:  84;

$$

ABBREVIATIONS USED IN REMARKS
   TC - TEMPERATURE IN CELSIUS
  WCI - WIND CHILL INDEX
   HX - HEAT INDEX
  VSB - VISIBILITY




USA.gov is the U.S. government's official web portal to all federal, state and local government web resources and services.